Content
SEND FEEDBACK

Daily
Averages
Monthly
Summary
Egypt

HELWAN, EGYPT


Home > Middle East > Egypt
Elevation: 141 meters     Latitude: 29 52N     Longitude: 031 19E

WEATHER
 
SELECT A DAY
Number of Records: 288,541;   Date Range: 7/1/96 - 7/20/14
 
SHARE

PRINT THIS DATA

[ ← Previous Day ]
WEATHER ALMANAC - 13 FEBRUARY, 2013
[ Next Day → ]
[ °F ]   °C
Weather ElementAverageHighLow
Temperature14.9 °C20 °C (3:00 pm)9 °C (5:30 am)
Dewpoint5.9 °C9 °C (8:30 pm)1 °C (6:00 pm)
Humidity57.2 %82 % (4:30 am)23 % (2:00 pm)
Barometer1016.6 hPa1019.3 hPa (2:00 am)1014.2 hPa (5:00 pm)
Wind Speed16.4 km/h37 km/h (10:00 am)
Weather ElementAverage
Visibility7.4 km
Wind DirectionENE (58 °)

Weather ElementTotal
Precipitation---
Heating Degree Days3.8 (Base 18.3)
Growing Degree Days4.5 (Base 10)
Averaged from 51 records on 13 February, 2013
WEATHER CONDITIONS BREAKOUT
WIND DIRECTION BREAKOUT
WEATHER BY HOUR - 13 FEBRUARY, 2013
[ °F ]   °C
Local TimeTemperatureDewpointHumidityBarometerVisibilityWind DirectionWind SpeedGust SpeedPrecipitationEventsConditions
12:30 AM12 °C7 °C72 %1019 hPaNE (50°)14.8 km/hClear
1:00 AM12 °C7 °C72 %1019 hPaNE (50°)14.8 km/hClear
1:30 AM12 °C7 °C72 %1019 hPaNE (50°)14.8 km/hClear
2:00 AM12.2 °C6.7 °C60 %1019.3 hPa9.7 kmNE (50°)16.7 km/h
2:00 AM12 °C7 °C72 %1017.9 hPaNE (50°)16.7 km/hClear
2:30 AM12 °C7 °C72 %1017.9 hPaNE (50°)16.7 km/hClear
3:00 AM11 °C6 °C71 %1017.9 hPaNE (50°)14.8 km/hClear
3:30 AM11 °C6 °C71 %1017.9 hPaEast (80°)11.1 km/hClear
4:00 AM11 °C7 °C76 %1017.9 hPaENE (70°)7.4 km/hClear
4:30 AM10 °C7 °C82 %1017.9 hPaENE (60°)7.4 km/hClear
5:00 AM10 °C7 °C82 %1017.9 hPa6 kmNE (40°)7.4 km/h
5:30 AM9 °C6 °C82 %1017.9 hPa6 kmEast (80°)9.3 km/h
6:00 AM10 °C6 °C76 %1017.9 hPa6 kmEast (80°)9.3 km/h
6:30 AM10 °C6 °C76 %1017.9 hPa6 kmEast (80°)9.3 km/h
7:00 AM9 °C6 °C82 %1017.9 hPa6 kmENE (60°)7.4 km/h
7:30 AM10 °C7 °C82 %1019 hPa6 kmENE (70°)9.3 km/h
8:00 AM10.6 °C6.7 °C70 %1019.3 hPa9.7 kmENE (70°)7.4 km/hClear
8:00 AM10 °C7 °C82 %1019 hPaENE (70°)7.4 km/hClear
8:30 AM13 °C8 °C72 %1017.9 hPaENE (60°)18.5 km/hClear
9:00 AM15 °C8 °C63 %1017.9 hPaENE (60°)22.2 km/hClear
9:30 AM15 °C7 °C59 %1017.9 hPaENE (60°)35.2 km/hClear
10:00 AM16 °C7 °C55 %1017.9 hPaENE (60°)37 km/hClear
10:30 AM16 °C6 °C52 %1017.9 hPaNE (50°)35.2 km/hClear
11:00 AM17 °C6 °C48 %1017.9 hPaENE (60°)33.3 km/hClear
11:30 AM18 °C6 °C45 %1017.3 hPaENE (70°)27.8 km/hClear
12:00 PM18 °C6 °C45 %1017.3 hPaNE (50°)27.8 km/hClear
12:30 PM18 °C5 °C42 %1016.3 hPaENE (60°)22.2 km/hClear
1:00 PM19 °C5 °C40 %1016.3 hPaENE (60°)22.2 km/hClear
1:30 PM19 °C4 °C37 %1015.2 hPaNE (50°)18.5 km/hClear
2:00 PM19.4 °C3.3 °C23 %1015.9 hPa9.7 kmENE (60°)20.4 km/hClear
2:00 PM19 °C3 °C35 %1015.2 hPaENE (60°)20.4 km/hClear
2:30 PM19 °C2 °C32 %1015.2 hPaENE (70°)14.8 km/hClear
3:00 PM20 °C2 °C30 %1015.2 hPaNE (50°)9.3 km/hClear
3:30 PM20 °C2 °C30 %1015.2 hPaNNE (20°)14.8 km/hClear
4:00 PM20 °C2 °C30 %1015.2 hPaNNE (20°)14.8 km/hClear
4:30 PM20 °C2 °C30 %1015.2 hPaNNE (30°)14.8 km/hClear
5:00 PM20 °C2 °C30 %1014.2 hPaNE (40°)13 km/hClear
5:03 PM20 °C2 °C30 %1015.2 hPaNE (40°)11.1 km/hClear
6:00 PM19 °C1 °C30 %1014.2 hPaNE (50°)11.1 km/hClear
6:30 PM19 °C2 °C32 %1014.2 hPaNE (40°)13 km/hClear
7:00 PM18 °C8 °C52 %1015.2 hPaNorth (360°)18.5 km/hClear
7:30 PM16 °C8 °C59 %1015.2 hPaNNE (30°)20.4 km/hClear
8:00 PM16.1 °C8.3 °C49 %1015.6 hPa9.7 kmNNE (30°)20.4 km/hClear
8:00 PM16 °C8 °C59 %1015.2 hPaNNE (30°)20.4 km/hClear
8:30 PM16 °C9 °C63 %1015.2 hPaNE (40°)18.5 km/hClear
9:00 PM15 °C9 °C67 %1014.2 hPaNE (40°)16.7 km/hClear
9:30 PM15 °C9 °C67 %1014.2 hPaNE (40°)16.7 km/hClear
10:00 PM15 °C8 °C63 %1014.2 hPaNNE (30°)13 km/hClear
10:30 PM15 °C8 °C63 %1014.2 hPaNNE (30°)13 km/hClear
11:00 PM14 °C8 °C67 %1014.2 hPaNE (50°)9.3 km/hClear
11:30 PM14 °C8 °C67 %1014.2 hPaNE (50°)9.3 km/hClear
Hourly data recorded from HECA, located 0 kilometers away from Helwan, Egypt







STORIES FROM OUR PARTNERS